User: anonymous   Login
Location: Sungai Anya
(2.6167°N, 114.0500°E)
Time: 17:49:21
(UTC+00:00)
Language:

Cosmos 220 Rocket - Orbit

View from above orbital plane
View from above orbital plane
View from above satellite
View from above satellite

Ground track
Ground track

The orbit data is extracted from the following two-line orbital elements,

1 03230U 68040B   22024.69337965  .00000504  00000-0  54609-4 0  9991
2 03230  74.0363 113.9552 0030806 335.1676  24.8021 14.91003309864956
Epoch (UTC): 24 January 2022 16:38:28
Eccentricity: 0.0030806
inclination: 74.0363°
perigee height: 573 km
apogee height: 616 km
right ascension of ascending node: 113.9552°
argument of perigee: 335.1676°
revolutions per day: 14.91003309
mean anomaly at epoch: 24.8021°
orbit number at epoch: 86495

The dashed part of the orbit path shows where the satellite is in the earth's shadow,  

DLR